Temperature
11 11 11 11 11 11 11 11 11 11 11 11 11 11 11 11 11 11 11 10 10 10 10 10 10 10 10 10 10 10 10 10 10 9 9 9 9 9 9 9 9 9 9
11 11 11 11 11 11 11 11 11 11 11 10 10 11 11 10 10 10 10 10 10 10 10 10 10 10 10 10 10 9 9 9 9 9 9 9 9 9 9 9 9 9 9
10 10 10 10 10 10 10 10 10 10 10 10 10 10 10 10 10 10 10 10 10 10 10 10 10 10 10 10 9 9 9 9 9 9 9 9 9 9 9 9 9 9 9
10 10 10 10 10 10 10 10 10 10 10 10 10 10 10 10 10 10 10 10 9 9 9 9 9 9 9 9 9 9 9 9 9 9 9 9 9 9 9 9 8 8 8
9 9 9 9 9 9 9 9 9 9 9 9 9 9 9 9 9 9 9 9 9 9 9 9 9 9 9 9 9 9 9 9 8 8 9 8 8 8 8 8 8 8 8
9 9 9 9 9 9 9 9 9 9 9 9 9 9 9 9 9 9 9 9 9 9 9 9 9 9 9 9 9 9 9 8 8 8 8 8 8 8 8 8 8 8 8
8 8 8 9 9 9 9 9 9 9 8 8 8 8 8 8 8 9 9 9 9 9 9 9 9 8 8 9 9 9 9 8 8 8 8 8 8 8 8 8 7 7 7
8 8 8 8 8 8 8 8 8 8 8 8 8 7 7 7 8 8 8 8 8 8 8 8 8 8 8 8 8 8 8 8 8 8 8 8 8 7 7 7 7 7 7
7 7 7 7 7 7 7 7 7 8 8 7 7 7 7 7 7 7 8 8 8 8 8 8 8 8 8 8 8 8 8 8 8 8 8 7 7 7 7 7 7 7 7
7 7 7 7 7 7 7 7 7 7 7 7 7 7 7 7 7 7 7 7 7 8 7 8 8 7 8 8 8 8 8 8 8 7 7 7 7 7 7 7 7 7 7
6 6 6 6 6 6 7 6 6 7 7 7 7 7 7 7 7 7 6 7 7 7 7 7 7 7 7 7 7 8 8 8 7 7 7 7 7 7 6 6 6 6 6
6 6 6 6 6 6 6 6 6 6 6 6 6 6 6 6 6 6 6 6 6 7 7 7 7 7 7 7 7 7 7 7 7 7 7 7 7 7 6 6 6 6 6
5 5 5 5 5 5 6 6 6 6 6 6 6 6 6 6 6 6 6 6 5 6 7 7 7 7 7 7 7 7 7 7 7 7 7 7 7 6 6 6 6 6 6
4 5 5 5 5 5 5 5 5 5 5 5 5 6 6 6 6 6 6 6 5 5 6 6 6 6 6 6 6 6 6 7 7 7 6 6 6 6 6 6 6 6 5
4 4 4 4 4 4 4 4 5 5 5 5 5 5 5 5 5 5 5 5 5 5 5 5 6 6 6 6 6 6 6 6 6 6 6 6 6 6 6 6 5 5 5
3 3 3 3 3 4 4 4 4 4 4 4 5 5 5 5 5 5 5 5 5 5 4 5 5 5 5 6 6 6 5 5 6 6 6 6 6 5 5 5 5 5 5
2 2 3 3 3 3 3 3 3 3 3 4 4 4 4 4 4 4 5 5 5 4 4 4 5 5 5 5 5 5 5 5 5 5 5 5 5 5 5 5 4 4 4
2 2 2 2 2 2 2 2 2 3 3 3 3 3 3 3 4 4 4 4 4 4 4 4 4 4 4 4 4 4 4 4 4 4 4 4 4 4 4 4 4 4 4
1 1 1 1 2 2 2 2 2 2 2 2 2 3 3 3 3 3 3 3 3 3 3 3 4 4 4 4 4 4 4 4 4 4 4 4 4 4 4 4 4 4 4
0 1 1 1 1 1 1 1 1 1 2 2 2 2 2 2 2 3 3 3 3 3 3 3 3 3 3 3 3 3 3 3 3 3 3 3 3 3 3 3 3 3 3
-0 -0 0 0 0 0 0 1 1 1 1 1 1 1 1 2 2 2 2 2 2 2 2 2 2 2 2 2 2 2 2 3 3 3 3 3 3 3 3 3 3 3 2
-1 -1 -0 -1 -0 -0 -0 -0 -0 -0 0 0 1 1 1 1 1 1 1 1 1 2 2 2 1 1 2 2 2 2 2 2 2 2 2 2 2 2 2 2 2 2 2
-1 -1 -1 -1 -1 -1 -1 -1 -1 -1 -1 -0 -0 -0 0 0 0 0 1 1 1 1 1 1 1 1 1 1 1 1 1 1 1 1 1 1 2 2 2 2 2 2 1
-2 -2 -2 -2 -2 -1 -1 -1 -1 -1 -1 -1 -1 -1 -0 -0 -0 -0 -0 0 0 0 0 0 0 0 0 0 1 1 1 1 1 1 1 1 1 1 1 1 1 1 1
-3 -2 -2 -2 -2 -2 -2 -2 -2 -2 -2 -1 -1 -1 -1 -1 -1 -1 -1 -1 -0 -0 -0 -0 -0 -0 -0 -0 0 -0 -0 -0 -0 0 0 -0 0 0 0 1 1 0 0
-3 -3 -3 -3 -3 -2 -2 -2 -2 -2 -2 -2 -2 -2 -1 -1 -1 -1 -1 -1 -1 -1 -1 -1 -1 -1 -1 -1 -1 -1 -1 -1 -1 -1 -1 -1 -1 -1 -1 -0 -0 -0 -0
Wind_Speed
5 5 6 6 7 7 7 6 6 6 6 6 5 5 5 5 5 6 7 9 7 7 8 9 8 8 9 8 8 9 9 9 9 9 9 9 9 9 9 9 10 10 10
5 5 5 5 6 6 6 6 6 6 5 5 5 5 5 5 5 5 6 7 7 7 7 7 8 8 8 8 8 8 8 8 8 8 8 8 8 8 8 8 8 8 8
5 6 5 4 5 6 6 6 6 5 5 4 4 4 4 4 4 4 4 4 5 6 6 7 7 7 7 7 7 6 7 7 6 6 6 6 7 7 7 7 7 7 7
5 5 5 4 5 6 5 5 4 4 4 4 3 3 3 3 3 4 4 4 4 4 5 6 6 6 5 5 5 5 5 5 5 5 4 4 4 5 5 5 5 6 6
4 5 4 4 5 5 5 4 4 4 4 4 3 2 2 2 2 3 4 4 3 3 4 5 5 4 4 3 3 3 4 4 4 3 3 2 2 2 3 3 3 4 4
4 4 3 4 5 4 4 4 5 4 4 4 3 2 1 1 1 2 3 3 3 3 3 3 3 3 3 2 2 2 2 3 3 3 2 2 1 1 1 1 2 2 2
4 4 3 3 4 4 4 4 4 5 4 4 3 2 1 1 1 2 2 2 3 3 3 3 2 2 2 3 2 1 1 2 3 3 3 2 3 3 2 1 2 1 1
4 4 3 3 3 3 4 4 4 3 3 3 3 3 2 2 2 1 2 2 3 3 2 2 3 3 3 2 2 2 2 3 4 4 4 3 4 4 3 2 2 1 1
4 4 4 3 3 4 4 4 4 4 4 4 3 2 2 3 2 2 3 3 3 3 3 2 3 3 3 3 3 3 3 4 4 5 5 5 4 5 5 4 4 3 2
3 3 3 3 3 3 4 4 4 3 4 4 3 2 1 1 2 2 2 3 3 3 3 2 3 3 4 4 3 3 4 5 5 5 5 6 6 6 6 6 5 5 4
2 2 2 2 2 2 3 4 3 3 3 4 4 3 2 2 3 3 3 3 3 3 3 3 3 3 4 4 4 4 4 5 6 6 7 7 6 6 7 7 6 6 5
1 1 1 1 2 2 3 4 3 4 3 4 4 3 3 3 3 3 3 3 3 2 3 3 3 3 3 4 4 3 3 4 5 6 7 7 6 6 6 7 7 6 5
1 1 1 2 2 2 2 3 3 4 4 4 4 4 3 3 2 3 3 3 3 2 2 3 3 3 3 4 3 3 4 4 4 5 6 6 6 6 6 6 7 6 6
1 2 2 2 2 2 2 3 3 3 3 4 4 4 3 3 3 3 3 3 3 3 3 3 2 3 3 3 3 4 4 4 4 4 5 5 6 6 5 6 6 6 6
1 2 2 2 2 2 2 3 3 3 3 4 4 4 4 3 3 3 3 4 4 4 5 3 2 2 2 3 4 5 5 4 4 4 4 5 5 5 5 6 6 6 6
2 2 2 2 2 2 2 3 3 3 3 3 3 4 4 3 3 3 3 4 4 4 4 3 2 2 3 3 4 5 5 5 5 5 4 4 4 4 4 5 5 6 6
2 2 3 3 3 3 3 3 4 4 4 4 3 4 4 4 3 3 3 4 4 4 5 4 2 2 3 3 3 4 5 5 5 5 5 5 4 4 4 4 5 5 5
3 3 3 3 3 3 3 4 4 5 5 5 5 5 5 4 4 4 4 4 4 4 4 5 4 3 4 3 3 4 4 5 5 5 5 5 5 5 5 5 5 5 5
3 3 2 3 3 4 4 5 5 6 6 6 6 6 6 5 5 4 4 4 4 4 4 4 4 3 3 2 3 3 3 3 4 4 5 6 6 5 5 5 6 6 6
3 3 3 4 4 4 5 5 5 6 6 6 6 6 6 6 6 5 4 5 4 4 4 4 3 3 2 2 3 3 3 3 3 3 5 5 5 6 7 6 6 7 6
3 3 3 3 4 4 4 5 5 5 6 6 5 6 5 5 5 4 4 5 4 4 4 4 3 3 3 3 3 3 4 3 3 2 3 4 4 5 5 6 6 6 6
3 3 4 4 4 4 4 5 5 5 6 6 6 5 5 5 5 5 5 5 6 6 6 5 4 5 5 4 3 3 3 3 3 2 3 4 4 4 5 6 6 6 7
4 4 4 4 5 5 5 6 5 5 6 6 6 6 5 5 6 5 5 5 5 5 6 6 6 6 6 5 5 5 5 4 4 2 3 4 3 5 5 6 7 7 8
3 4 4 4 5 5 5 6 6 6 5 6 6 6 6 5 5 6 5 5 4 5 5 5 6 6 5 5 5 5 5 4 4 3 3 4 4 5 5 6 7 8 8
4 4 4 5 5 5 5 6 5 4 4 5 5 6 6 6 6 6 5 5 5 4 3 4 5 5 6 6 5 3 3 3 4 3 3 3 3 4 4 5 6 7 8
4 3 4 4 5 5 5 6 6 4 4 5 5 5 6 7 7 7 6 6 6 5 4 3 3 3 3 4 5 4 4 4 3 3 2 3 3 2 3 3 3 4 6
Wind_Direction
140 140 144 147 144 141 141 139 136 131 129 129 128 127 121 114 109 107 102 95 98 104 108 109 111 110 107 104 101 98 93 89 84 80 78 76 75 75 74 71 68 67 64
138 138 136 139 139 145 146 145 140 136 133 130 127 127 124 120 115 112 110 105 94 93 103 108 110 115 113 110 107 103 99 94 87 83 79 80 78 76 77 75 69 66 64
139 140 138 136 135 135 136 138 137 135 128 126 125 120 122 126 126 123 123 127 122 102 97 103 107 110 108 107 106 108 106 103 95 88 82 80 78 78 74 76 72 66 62
135 141 141 137 135 138 138 139 141 141 139 135 131 123 121 135 145 137 131 132 134 131 116 106 105 106 103 105 106 112 115 113 108 99 91 83 79 80 77 74 75 67 63
129 137 142 136 136 138 144 146 150 149 146 139 131 127 120 131 146 148 140 132 129 134 135 127 122 114 114 110 104 123 131 133 127 122 115 103 92 85 83 83 91 81 71
126 126 134 138 139 140 145 153 151 148 150 146 137 129 126 137 154 155 154 142 140 145 151 152 155 146 149 146 135 137 154 158 163 170 166 162 158 143 105 113 118 104 84
123 127 127 146 149 157 158 159 153 151 153 152 143 125 111 148 180 174 168 163 154 157 164 173 176 184 170 170 183 194 201 200 200 196 198 199 203 204 206 177 158 151 122
136 140 139 148 159 159 157 158 155 161 164 170 165 157 173 186 190 192 197 198 194 177 178 197 201 205 209 204 188 203 231 239 225 219 219 218 218 220 219 208 191 179 160
144 143 148 149 162 168 170 171 173 175 178 185 192 194 190 201 180 198 212 214 215 207 201 206 220 220 220 220 223 218 236 248 245 237 232 223 223 233 239 224 226 223 226
142 149 151 156 162 174 176 181 185 191 183 193 194 223 240 182 200 193 203 214 217 224 223 217 230 232 228 225 230 245 245 245 250 250 240 233 233 240 240 236 233 234 233
132 139 150 160 172 180 183 188 193 196 196 202 199 193 199 199 218 226 218 217 228 230 236 235 234 237 234 227 230 243 242 240 249 252 245 244 244 242 246 245 240 239 235
139 140 143 168 197 193 192 196 200 205 206 210 209 205 202 203 209 221 229 225 237 240 246 238 234 235 236 233 237 248 239 242 251 249 248 248 248 250 257 255 244 237 237
253 219 223 207 213 213 205 203 204 212 210 210 215 217 220 222 213 226 225 227 244 257 246 239 233 240 239 237 241 244 238 243 253 255 252 252 255 256 262 262 247 239 242
237 249 243 223 216 215 215 207 204 211 214 215 221 224 220 218 212 217 219 216 232 243 239 239 238 241 235 235 248 241 242 244 248 253 253 257 260 262 265 262 253 250 249
250 247 245 231 218 216 220 210 208 213 216 221 224 228 223 220 218 220 221 225 229 235 240 240 236 248 249 234 243 241 241 240 243 254 255 257 262 260 263 262 259 259 255
257 236 232 227 216 223 225 217 212 214 212 221 226 230 230 226 224 217 220 228 239 238 239 243 251 281 271 256 239 238 238 237 238 250 260 258 251 252 260 268 269 265 259
248 232 227 229 221 222 228 225 216 215 219 222 224 227 235 232 227 222 221 224 230 235 241 252 264 276 265 267 250 239 237 241 240 243 253 256 249 248 252 262 269 276 270
248 240 228 227 225 226 231 233 226 220 220 222 223 225 230 231 227 226 221 224 228 235 241 248 262 264 263 264 263 249 244 241 245 244 246 247 250 252 251 254 265 274 276
253 250 240 237 232 230 232 233 231 225 224 225 224 225 227 226 228 227 227 227 229 231 233 235 247 261 263 260 263 270 259 247 251 250 241 239 244 246 247 254 261 264 265
250 244 242 243 239 235 235 234 235 232 226 226 226 226 227 226 232 227 231 230 226 226 227 228 235 246 258 257 256 258 263 256 258 265 249 244 246 245 244 250 255 257 256
256 248 242 246 247 242 239 237 234 237 228 226 227 228 229 227 238 242 238 235 226 225 224 228 234 241 245 242 242 252 264 264 265 265 262 257 260 259 253 249 252 258 258
263 257 247 242 245 245 248 247 240 237 232 226 228 230 230 226 230 238 243 240 235 229 225 228 236 239 244 251 247 250 260 268 261 247 273 272 266 262 265 262 260 259 258
272 263 256 249 248 248 244 244 242 241 238 230 227 228 230 231 229 232 233 229 236 243 237 233 236 242 246 248 246 249 248 258 266 276 272 268 270 267 275 266 258 252 255
280 271 262 254 253 250 245 245 243 242 241 235 231 229 227 229 227 223 225 226 232 241 238 234 238 244 249 250 241 247 256 268 283 269 268 266 272 277 283 273 254 252 257
283 280 274 260 254 254 247 247 245 238 240 238 234 233 229 228 224 220 225 227 233 244 245 236 242 248 250 245 236 238 240 248 267 262 264 263 272 288 285 274 261 250 259
281 286 282 275 263 257 248 245 247 236 237 238 232 231 231 230 223 223 226 229 230 236 232 235 239 236 239 232 227 230 231 238 261 259 243 248 262 291 283 273 283 281 271
Height
1546 1548 1550 1552 1553 1555 1556 1558 1559 1560 1562 1563 1564 1565 1566 1567 1567 1568 1568 1569 1569 1570 1570 1570 1570 1570 1570 1570 1570 1570 1570 1570 1569 1569 1569 1568 1568 1567 1567 1567 1566 1566 1565
1545 1547 1548 1550 1552 1553 1555 1557 1558 1559 1561 1562 1563 1564 1565 1566 1567 1567 1568 1568 1569 1569 1570 1570 1570 1570 1570 1570 1570 1570 1570 1570 1569 1569 1569 1569 1568 1568 1568 1567 1567 1566 1565
1543 1545 1547 1548 1550 1552 1553 1555 1557 1558 1559 1560 1562 1563 1564 1565 1565 1566 1567 1568 1568 1569 1569 1569 1570 1570 1570 1570 1570 1570 1570 1569 1569 1569 1569 1569 1569 1568 1568 1567 1567 1566 1566
1542 1543 1545 1547 1548 1550 1552 1554 1555 1556 1558 1559 1560 1561 1562 1563 1564 1565 1566 1566 1567 1568 1568 1568 1569 1569 1569 1569 1570 1569 1569 1569 1569 1569 1569 1568 1568 1568 1568 1567 1567 1566 1566
1540 1542 1543 1545 1546 1548 1550 1552 1553 1555 1556 1557 1558 1559 1560 1561 1562 1563 1564 1565 1565 1566 1567 1567 1568 1568 1568 1569 1569 1569 1569 1569 1568 1568 1568 1568 1568 1568 1567 1567 1566 1566 1565
1537 1539 1542 1543 1544 1546 1548 1550 1552 1553 1554 1555 1556 1558 1559 1559 1560 1561 1562 1563 1564 1564 1565 1566 1566 1567 1567 1567 1567 1567 1567 1568 1568 1568 1567 1567 1567 1567 1566 1566 1566 1565 1565
1535 1537 1539 1541 1542 1544 1546 1548 1549 1551 1552 1553 1555 1556 1557 1558 1558 1559 1560 1561 1561 1562 1563 1564 1564 1565 1565 1565 1566 1566 1566 1566 1566 1566 1566 1566 1566 1566 1566 1565 1565 1565 1564
1533 1535 1537 1538 1540 1542 1543 1545 1547 1548 1549 1551 1552 1554 1555 1557 1556 1556 1557 1558 1559 1560 1561 1561 1562 1563 1563 1563 1564 1564 1564 1564 1564 1565 1565 1565 1564 1564 1564 1564 1564 1564 1563
1531 1533 1534 1536 1538 1539 1541 1542 1544 1546 1547 1548 1550 1552 1553 1554 1554 1554 1554 1555 1556 1557 1558 1559 1559 1560 1561 1561 1561 1562 1562 1562 1562 1562 1563 1562 1563 1563 1563 1562 1562 1562 1561
1528 1530 1532 1534 1535 1537 1538 1539 1541 1543 1544 1545 1547 1548 1550 1551 1552 1552 1552 1553 1553 1554 1555 1556 1556 1557 1558 1558 1558 1559 1559 1560 1560 1560 1560 1560 1560 1560 1560 1560 1560 1559 1559
1526 1527 1530 1531 1533 1534 1536 1537 1539 1540 1541 1542 1544 1545 1546 1548 1549 1550 1550 1550 1551 1551 1552 1553 1553 1554 1554 1555 1555 1556 1556 1557 1557 1557 1557 1557 1557 1557 1558 1557 1557 1556 1556
1523 1524 1526 1528 1530 1531 1533 1534 1536 1537 1538 1540 1541 1542 1543 1544 1545 1547 1547 1547 1548 1548 1549 1549 1550 1551 1551 1552 1552 1552 1553 1553 1554 1554 1554 1554 1554 1554 1554 1554 1554 1553 1553
1520 1522 1524 1525 1527 1528 1530 1531 1533 1534 1535 1536 1538 1539 1540 1541 1543 1544 1544 1545 1545 1545 1546 1546 1547 1547 1548 1548 1549 1549 1549 1550 1550 1550 1550 1550 1550 1551 1550 1551 1551 1550 1550
1517 1519 1521 1522 1524 1525 1527 1528 1529 1530 1532 1533 1534 1535 1537 1538 1539 1541 1542 1542 1542 1543 1543 1543 1543 1544 1544 1545 1545 1546 1546 1546 1546 1546 1546 1546 1547 1547 1547 1547 1547 1546 1546
1514 1515 1517 1519 1520 1522 1523 1524 1525 1527 1528 1529 1530 1532 1533 1534 1535 1537 1538 1539 1541 1540 1540 1539 1540 1540 1541 1541 1541 1542 1542 1542 1542 1542 1542 1542 1542 1543 1543 1543 1543 1543 1543
1510 1512 1513 1515 1516 1518 1519 1520 1521 1523 1524 1525 1526 1527 1528 1530 1531 1533 1534 1535 1536 1537 1536 1536 1536 1536 1537 1537 1538 1538 1538 1538 1538 1538 1538 1538 1538 1538 1538 1538 1538 1539 1539
1507 1508 1510 1511 1512 1514 1515 1516 1517 1519 1520 1521 1522 1523 1524 1526 1527 1529 1530 1531 1532 1533 1532 1532 1532 1533 1533 1533 1534 1534 1534 1534 1534 1534 1534 1534 1534 1534 1534 1534 1534 1534 1534
1504 1505 1505 1507 1508 1509 1511 1512 1513 1514 1515 1516 1517 1519 1520 1522 1523 1524 1526 1527 1528 1528 1529 1528 1528 1529 1529 1529 1529 1530 1530 1530 1530 1530 1530 1530 1530 1530 1530 1530 1530 1530 1530
1500 1500 1501 1503 1504 1505 1507 1508 1509 1510 1511 1512 1513 1514 1515 1517 1518 1520 1521 1522 1523 1524 1524 1524 1524 1525 1525 1526 1526 1525 1525 1526 1526 1526 1526 1526 1526 1526 1526 1526 1526 1526 1526
1496 1496 1498 1499 1500 1501 1502 1503 1504 1505 1506 1507 1508 1509 1511 1512 1513 1514 1516 1517 1518 1518 1520 1520 1520 1520 1521 1521 1522 1521 1521 1521 1521 1522 1522 1522 1522 1522 1522 1522 1521 1521 1521
1493 1493 1494 1495 1496 1497 1497 1498 1499 1500 1501 1502 1504 1505 1506 1507 1508 1509 1511 1512 1513 1514 1515 1515 1515 1516 1516 1517 1517 1517 1517 1517 1517 1517 1517 1517 1517 1517 1517 1517 1516 1516 1516
1489 1490 1490 1491 1491 1492 1493 1494 1495 1496 1497 1498 1499 1500 1501 1502 1503 1504 1506 1507 1509 1510 1510 1511 1511 1511 1512 1513 1513 1513 1513 1512 1512 1513 1512 1512 1512 1512 1512 1512 1511 1511 1511
1486 1486 1486 1487 1487 1488 1489 1490 1491 1492 1492 1493 1494 1495 1496 1497 1498 1500 1500 1502 1503 1504 1506 1507 1506 1506 1507 1508 1508 1508 1508 1508 1508 1508 1508 1507 1507 1507 1507 1506 1506 1506 1506
1483 1483 1483 1483 1483 1483 1484 1485 1487 1488 1488 1488 1489 1490 1492 1492 1494 1495 1496 1497 1498 1499 1500 1501 1502 1502 1503 1503 1503 1504 1503 1503 1503 1503 1503 1503 1502 1502 1502 1501 1501 1501 1501
1480 1479 1479 1479 1479 1479 1480 1481 1483 1483 1483 1484 1485 1486 1487 1488 1489 1491 1492 1492 1493 1494 1495 1496 1497 1497 1498 1499 1499 1499 1499 1499 1498 1498 1499 1498 1497 1497 1496 1496 1496 1496 1496
1476 1476 1475 1475 1475 1475 1475 1477 1478 1479 1479 1479 1480 1481 1483 1484 1485 1486 1487 1488 1488 1489 1490 1491 1492 1492 1493 1493 1494 1494 1494 1494 1493 1493 1493 1494 1493 1492 1491 1491 1491 1491 1491